LEMUR-2-KOBYSZCZE (43732 NORAD) Tracking and Keplerian Element Data

This shows tracking and keplerian element data for the satellite.

Feedback or suggestion? Click here.




ElementValue
Catalog43732
NameLEMUR-2-KOBYSZCZE
Epoch Orbit23099
Epoch Day13.98310642
Epoch Year2023
RAAN110.5375
Inclination97.3503
Eccentricity0.0013376
Argument of Perigee323.0699
Mean Anonmoly36.9647
Mean Motion15.82520081
Decay Rate0.00475848
L11 43732U 18096P 23013.98310642 .00475848 00000+0 21654-2 0 9990
L22 43732 97.3503 110.5375 0013376 323.0699 36.9647 15.82520081230992



Live tracking and technical data element details for LEMUR-2-KOBYSZCZE (NORAD 43732). LEMUR-2-KOBYSZCZE can be tracked NOW for your location showing map with azimuth and elevation plus other details from your city location.







IsCatalogInMostPopularTable: catalog: 43732, numindb: 352
Update: records affected: 1



GetName: 43732 LEMUR-2-KOBYSZCZE

Hit Count: updated at: Sat, 17 May 2025 09:49:43 GMT